Location: Hopkins Observatory
(42.6965°N, 73.1843°W)
Time: 14:56:00
(UTC-04:00)

Amateur Radio Satellites - All Passes

Search period start: 23 August 2014 14:26
Search period end: 24 August 2014 14:26
Location: Hopkins Observatory, 42.6965°N, 73.1843°W

Satellite Date Start Highest point End Downlink Frequencies (MHz)
Time Altitude Azimuth
ITAMSAT 1 23 Aug 14:27:05 14:32:15 70° 258° (WSW) 14:37:26 435.822 SSB
Gurwin Techsat 1B 23 Aug 14:35:54 14:41:08 64° 73° (ENE) 14:46:24 435.225 FM
Uribyol 2 23 Aug 14:39:25 14:44:25 51° 260° (W) 14:49:27 436.500 FM
ISS 23 Aug 14:40:25 14:43:38 48° 332° (NNW) 14:46:53 145.800 FM
JAS-1B 23 Aug 14:42:28 14:52:25 76° 257° (WSW) 15:01:46 435.800 - 435.900 CW/SSB
Oscar 16 23 Aug 14:48:29 14:52:15 20° 268° (W) 14:56:02 437.025 USB, Beacon 2401.1428
Uosat F 23 Aug 14:52:10 14:54:51 15° 59° (ENE) 14:57:31 435.120 FM
AO-27 23 Aug 14:54:24 14:59:13 39° 262° (W) 15:04:04 436.795 MHz FM
AO-7 23 Aug 15:14:00 15:21:40 43° 60° (ENE) 15:29:19 29.400 - 29.500 MHz
UOSAT-12 23 Aug 15:14:12 15:17:56 23° 42° (NE) 15:21:39 437.025 FM, 437.400 FM
TMSAT-1 23 Aug 15:32:56 15:38:06 54° 260° (W) 15:43:18 436.925 FM
RS-15 23 Aug 15:48:22 15:57:44 30° 27° (NNE) 16:07:17 29.354 - 29.394 USB, Beacon 29.352 USB
AO-Echo 23 Aug 15:48:41 15:50:33 12° 271° (W) 15:52:24 ?
SO-50 23 Aug 15:50:11 15:53:55 23° 248° (WSW) 15:57:40 436.795 FM
MaSat-1 23 Aug 15:55:45 16:00:26 49° 302° (WNW) 16:05:28 437.345 MHz
Gurwin Techsat 1B 23 Aug 16:18:14 16:21:33 17° 270° (W) 16:24:53 435.225 FM
ISS 23 Aug 16:18:30 16:20:57 19° 352° (N) 16:23:24 145.800 FM
Uosat F 23 Aug 16:27:59 16:33:00 77° 257° (WSW) 16:38:02 435.120 FM
JAS-1B 23 Aug 16:37:55 16:44:02 18° 274° (W) 16:50:00 435.800 - 435.900 CW/SSB
UOSAT-12 23 Aug 16:53:48 16:58:27 58° 241° (WSW) 17:03:01 437.025 FM, 437.400 FM
JAS-2 23 Aug 17:05:26 17:10:58 31° 66° (ENE) 17:15:59 435.800 - 435.900 CW/SSB, 435.910 FM
AO-7 23 Aug 17:06:23 17:14:20 47° 259° (W) 17:22:20 29.400 - 29.500 MHz
PCSat 23 Aug 17:19:51 17:20:36 10° 101° (E) 17:21:22 145.825 MHz
OPAL 23 Aug 17:20:18 17:25:31 67° 104° (ESE) 17:30:42 ?
ISS 23 Aug 17:55:58 17:58:33 20° 12° (NNE) 18:01:09 145.800 FM
RS-15 23 Aug 18:01:01 18:12:08 79° 55° (NE) 18:23:40 29.354 - 29.394 USB, Beacon 29.352 USB
Hamsat 23 Aug 18:01:34 18:05:51 89° 76° (ENE) 18:10:12 145.90 MHz
SO-67 23 Aug 18:07:09 18:08:34 12° 65° (ENE) 18:10:00 435.3500 MHz FM
Sapphire 23 Aug 18:27:48 18:32:50 41° 112° (ESE) 18:37:54 437.095 MHz 1200 baud AX-25 AFSK
JAS-2 23 Aug 18:49:37 18:55:55 44° 261° (W) 19:01:33 435.800 - 435.900 CW/SSB, 435.910 FM
STRAND 1 23 Aug 18:51:40 18:55:46 24° 94° (E) 18:59:50 ?
PCSat 23 Aug 18:57:41 19:03:05 80° 118° (ESE) 19:08:32 145.825 MHz
OPAL 23 Aug 19:00:26 19:03:51 18° 302° (WNW) 19:07:17 ?
ISS 23 Aug 19:32:26 19:35:45 66° 32° (NNE) 19:39:04 145.800 FM
SO-67 23 Aug 19:37:56 19:41:15 42° 262° (W) 19:44:35 435.3500 MHz FM
HO-68 23 Aug 19:45:35 19:51:32 30° 59° (ENE) 19:57:30 435.675 MHz FM
Sapphire 23 Aug 20:11:33 20:16:21 32° 311° (NW) 20:21:12 437.095 MHz 1200 baud AX-25 AFSK
RS-15 23 Aug 20:14:26 20:23:25 30° 256° (WSW) 20:32:43 29.354 - 29.394 USB, Beacon 29.352 USB
STRAND 1 23 Aug 20:30:19 20:35:06 42° 291° (WNW) 20:39:52 ?
PCSat 23 Aug 20:43:17 20:47:09 20° 318° (NW) 20:51:04 145.825 MHz
UKube-1 23 Aug 20:48:49 20:52:45 34° 69° (ENE) 20:56:42 145.840 MHz, 145.915 MHz
AO-40 23 Aug 20:57:32 02:40:22 37° 183° (S) 08:16:26 Beacon 2401.320
Oscar 11 23 Aug 21:03:29 21:07:12 29° 68° (ENE) 21:10:57 145.825 FM, Beacon 2401.500 USB
FUNcube-1 23 Aug 21:09:44 21:11:36 13° 62° (ENE) 21:13:28 145.950 - 145.970 MHz USB
ISS 23 Aug 21:10:00 21:12:09 16° 228° (SW) 21:14:17 145.800 FM
Oscar 10/S400 23 Aug 21:17:10 21:39:00 58° 167° (SSE) 05:55:23 145.825 - 145.975 CW/USB, Beacon 145.810 USB
HO-68 23 Aug 21:31:48 21:38:49 59° 258° (WSW) 21:45:53 435.675 MHz FM
UKube-1 23 Aug 22:25:38 22:29:02 22° 265° (W) 22:32:27 145.840 MHz, 145.915 MHz
Oscar 11 23 Aug 22:39:42 22:43:21 26° 265° (W) 22:47:02 145.825 FM, Beacon 2401.500 USB
FUNcube-1 23 Aug 22:43:23 22:47:29 61° 259° (W) 22:51:39 145.950 - 145.970 MHz USB
MaSat-1 24 Aug 00:12:56 00:17:42 51° 58° (ENE) 00:21:53 437.345 MHz
Saudisat 1A 24 Aug 00:13:28 00:17:24 32° 115° (ESE) 00:21:21 436.775 MHz
KITSAT 1 24 Aug 00:53:20 01:01:12 58° 114° (ESE) 01:09:05 435.175 FM
Oscar 16 24 Aug 01:19:43 01:23:03 17° 91° (E) 01:26:22 437.025 USB, Beacon 2401.1428
MaSat-1 24 Aug 01:51:11 01:54:13 17° 259° (W) 01:57:01 437.345 MHz
Saudisat 1A 24 Aug 01:53:03 01:56:58 31° 313° (NW) 02:00:55 436.775 MHz
PCSat 24 Aug 02:02:53 02:06:01 15° 38° (NE) 02:09:08 145.825 MHz
AO-Echo 24 Aug 02:13:25 02:17:10 23° 94° (E) 02:20:52 ?
Oscar 19 24 Aug 02:24:04 02:29:16 65° 102° (ESE) 02:34:25 437.125 CW, 437.150 USB
JAS-1B 24 Aug 02:30:24 02:36:42 31° 91° (E) 02:42:10 435.800 - 435.900 CW/SSB
ITAMSAT 1 24 Aug 02:39:22 02:44:13 39° 98° (E) 02:49:03 435.822 SSB
KITSAT 1 24 Aug 02:49:31 02:56:57 38° 316° (NW) 03:04:25 435.175 FM
Uribyol 2 24 Aug 02:51:10 02:56:16 54° 100° (E) 03:01:20 436.500 FM
Gurwin Techsat 1B 24 Aug 02:52:00 02:56:16 24° 93° (E) 03:00:30 435.225 FM
Oscar 16 24 Aug 02:57:41 03:02:49 61° 288° (WNW) 03:07:55 437.025 USB, Beacon 2401.1428
OPAL 24 Aug 02:59:31 03:02:51 18° 58° (ENE) 03:06:12 ?
AO-27 24 Aug 03:06:09 03:11:21 71° 103° (ESE) 03:16:30 436.795 MHz FM
Sapphire 24 Aug 03:14:46 03:19:55 41° 52° (NE) 03:25:01 437.095 MHz 1200 baud AX-25 AFSK
PCSat 24 Aug 03:44:57 03:50:24 74° 59° (ENE) 03:55:49 145.825 MHz
TMSAT-1 24 Aug 03:47:52 03:53:06 57° 101° (E) 03:58:17 436.925 FM
AO-Echo 24 Aug 03:51:43 03:56:04 37° 291° (WNW) 04:00:21 ?
Oscar 19 24 Aug 04:04:41 04:08:04 18° 299° (WNW) 04:11:27 437.125 CW, 437.150 USB
ITAMSAT 1 24 Aug 04:19:14 04:23:32 27° 295° (WNW) 04:27:50 435.822 SSB
JAS-1B 24 Aug 04:20:36 04:27:38 46° 295° (WNW) 04:33:36 435.800 - 435.900 CW/SSB
SO-50 24 Aug 04:28:01 04:29:28 11° 107° (ESE) 04:30:56 436.795 FM
Gurwin Techsat 1B 24 Aug 04:31:23 04:36:25 45° 290° (WNW) 04:41:25 435.225 FM
Uribyol 2 24 Aug 04:31:34 04:35:20 21° 298° (WNW) 04:39:06 436.500 FM
Uosat F 24 Aug 04:35:19 04:39:43 31° 96° (E) 04:44:06 435.120 FM
OPAL 24 Aug 04:36:15 04:41:12 64° 256° (WSW) 04:46:17 ?
AO-27 24 Aug 04:47:10 04:50:16 16° 300° (WNW) 04:53:22 436.795 MHz FM
KITSAT 1 24 Aug 04:50:42 04:55:05 15° 343° (NNW) 04:59:28 435.175 FM
Sapphire 24 Aug 04:58:28 05:03:11 31° 250° (WSW) 05:07:53 437.095 MHz 1200 baud AX-25 AFSK
AO-7 24 Aug 05:06:31 05:14:43 59° 103° (ESE) 05:22:49 29.400 - 29.500 MHz
TMSAT-1 24 Aug 05:28:47 05:32:35 20° 298° (WNW) 05:36:22 436.925 FM
PCSat 24 Aug 05:29:59 05:33:09 16° 256° (WSW) 05:36:19 145.825 MHz
Hamsat 24 Aug 05:47:54 05:50:33 16° 91° (E) 05:53:11 145.90 MHz
JAS-2 24 Aug 05:58:24 06:02:07 20° 93° (E) 06:05:55 435.800 - 435.900 CW/SSB, 435.910 FM
SO-50 24 Aug 06:04:50 06:09:19 80° 304° (NW) 06:13:55 436.795 FM
STRAND 1 24 Aug 06:08:12 06:12:53 38° 68° (ENE) 06:17:35 ?
Uosat F 24 Aug 06:14:04 06:18:29 32° 293° (WNW) 06:22:53 435.120 FM
KITSAT 1 24 Aug 06:50:32 06:54:39 14° 14° (NNE) 06:58:45 435.175 FM
AO-7 24 Aug 06:59:53 07:07:06 35° 303° (WNW) 07:14:17 29.400 - 29.500 MHz
SO-67 24 Aug 07:02:30 07:03:56 12° 91° (E) 07:05:21 435.3500 MHz FM
UOSAT-12 24 Aug 07:05:43 07:09:55 36° 115° (ESE) 07:14:11 437.025 FM, 437.400 FM
Hamsat 24 Aug 07:22:34 07:26:47 49° 287° (WNW) 07:30:58 145.90 MHz
JAS-2 24 Aug 07:42:35 07:47:33 49° 289° (WNW) 07:52:40 435.800 - 435.900 CW/SSB, 435.910 FM
STRAND 1 24 Aug 07:47:53 07:52:09 27° 265° (W) 07:56:27 ?
SO-50 24 Aug 07:48:09 07:50:39 14° 325° (NW) 07:53:12 436.795 FM
RS-15 24 Aug 08:25:42 08:35:59 46° 110° (ESE) 08:46:05 29.354 - 29.394 USB, Beacon 29.352 USB
SO-67 24 Aug 08:33:55 08:37:11 38° 287° (WNW) 08:40:25 435.3500 MHz FM
Saudisat 1A 24 Aug 08:39:10 08:43:15 35° 48° (NE) 08:47:17 436.775 MHz
KITSAT 1 24 Aug 08:45:42 08:52:59 35° 42° (NE) 09:00:12 435.175 FM
UOSAT-12 24 Aug 08:45:57 08:50:05 31° 314° (NW) 08:54:19 437.025 FM, 437.400 FM
HO-68 24 Aug 08:59:10 09:05:00 27° 94° (E) 09:10:49 435.675 MHz FM
UKube-1 24 Aug 10:11:59 10:16:16 57° 101° (E) 10:20:32 145.840 MHz, 145.915 MHz
Saudisat 1A 24 Aug 10:18:57 10:22:43 28° 246° (WSW) 10:26:27 436.775 MHz
Oscar 11 24 Aug 10:25:45 10:30:02 51° 100° (E) 10:34:17 145.825 FM, Beacon 2401.500 USB
FUNcube-1 24 Aug 10:31:53 10:35:33 24° 95° (E) 10:39:15 145.950 - 145.970 MHz USB
RS-15 24 Aug 10:37:18 10:48:05 56° 313° (NW) 10:58:50 29.354 - 29.394 USB, Beacon 29.352 USB
KITSAT 1 24 Aug 10:40:56 10:48:55 66° 244° (WSW) 10:56:50 435.175 FM
HO-68 24 Aug 10:46:06 10:53:07 61° 292° (WNW) 11:00:07 435.675 MHz FM
UKube-1 24 Aug 11:49:35 11:52:01 15° 298° (WNW) 11:54:26 145.840 MHz, 145.915 MHz
Oscar 11 24 Aug 12:03:07 12:05:48 16° 296° (WNW) 12:08:30 145.825 FM, Beacon 2401.500 USB
Oscar 19 24 Aug 12:05:38 12:08:14 14° 59° (ENE) 12:10:50 437.125 CW, 437.150 USB
FUNcube-1 24 Aug 12:07:59 12:11:58 33° 290° (WNW) 12:16:01 145.950 - 145.970 MHz USB
ISS 24 Aug 12:16:57 12:18:42 14° 131° (SE) 12:20:28 145.800 FM
Uribyol 2 24 Aug 12:34:16 12:36:19 12° 57° (ENE) 12:38:23 436.500 FM
HO-68 24 Aug 12:36:32 12:39:25 13° 312° (NW) 12:42:18 435.675 MHz FM
Oscar 16 24 Aug 12:37:11 12:41:28 27° 65° (ENE) 12:45:47 437.025 USB, Beacon 2401.1428
KITSAT 1 24 Aug 12:40:24 12:42:44 11° 263° (W) 12:45:03 435.175 FM
AO-27 24 Aug 12:48:19 12:51:25 16° 60° (ENE) 12:54:31 436.795 MHz FM
RS-15 24 Aug 12:55:00 13:03:33 25° 344° (NNW) 13:12:10 29.354 - 29.394 USB, Beacon 29.352 USB
SO-50 24 Aug 12:55:58 12:59:25 19° 40° (NE) 13:02:52 436.795 FM
JAS-1B 24 Aug 13:12:41 13:21:30 40° 63° (ENE) 13:29:42 435.800 - 435.900 CW/SSB
AO-Echo 24 Aug 13:26:41 13:31:19 36° 69° (ENE) 13:35:50 ?
TMSAT-1 24 Aug 13:33:00 13:35:32 14° 58° (ENE) 13:38:05 436.925 FM
Oscar 19 24 Aug 13:41:42 13:46:51 83° 256° (WSW) 13:52:04 437.125 CW, 437.150 USB
ISS 24 Aug 13:51:43 13:55:01 76° 327° (NNW) 13:58:22 145.800 FM
ITAMSAT 1 24 Aug 13:58:04 14:03:11 65° 73° (ENE) 14:08:19 435.822 SSB
MaSat-1 24 Aug 14:02:55 14:06:27 21° 102° (ESE) 14:10:11 437.345 MHz
Uribyol 2 24 Aug 14:09:50 14:15:00 87° 74° (ENE) 14:20:12 436.500 FM
Gurwin Techsat 1B 24 Aug 14:13:40 14:18:36 41° 69° (ENE) 14:23:33 435.225 FM
Oscar 16 24 Aug 14:15:51 14:20:38 39° 262° (W) 14:25:29 437.025 USB, Beacon 2401.1428
